This is the latest recevied weather packets stored in our database for station/object WB5CFT. If no packets are shown the sender has not sent any weather packets the latest 1 day(s).
| Time | Temp. | Humidity | Pressure | Rain* | Wind** | Luminosity | Snow |
|---|---|---|---|---|---|---|---|
| 1836274645 | 20.56° C | 76% | 1020.1 hPa | 1.78 mm | 1.34 m/s, 133° | 0 W/m² | - |
| 1836274498 | 21.11° C | 76% | 1020 hPa | 1.27 mm | 2.24 m/s, 124° | 0 W/m² | - |
| 1836274343 | 20.56° C | 76% | 1020.1 hPa | 1.78 mm | 3.13 m/s, 87° | 0 W/m² | - |
| 1836274197 | 21.11° C | 75% | 1020 hPa | 0 mm | 2.24 m/s, 121° | 0 W/m² | - |
| 1836274042 | 20.56° C | 75% | 1020.6 hPa | 0 mm | 3.58 m/s, 99° | 0 W/m² | - |
| 1778054321 | 21.67° C | 31% | 1011.8 hPa | 0 mm | 0 m/s | 0 W/m² | - |
| 1778054018 | 21.11° C | 32% | 1011.8 hPa | 0 mm | 0 m/s | 0 W/m² | - |
| 1778053715 | 21.11° C | 32% | 1011.9 hPa | 0 mm | 0 m/s | 0 W/m² | - |
| 1778053412 | 21.67° C | 34% | 1011.6 hPa | 0 mm | 0 m/s | 0 W/m² | - |
| 1778053110 | 21.67° C | 31% | 1011.7 hPa | 0 mm | 0 m/s | 0 W/m² | - |
| 1778052807 | 21.67° C | 31% | 1011.8 hPa | 0 mm | 0 m/s | 0 W/m² | - |
| 1778052504 | 21.67° C | 32% | 1011.7 hPa | 0 mm | 0 m/s | 0 W/m² | - |
| 1778052201 | 21.67° C | 33% | 1011.6 hPa | 0 mm | 0 m/s | 0 W/m² | - |
| 1778051899 | 21.67° C | 34% | 1011.4 hPa | 0 mm | 0 m/s | 0 W/m² | - |
| 1778051597 | 21.11° C | 34% | 1011.6 hPa | 0 mm | 0 m/s | 0 W/m² | - |
| 1778051294 | 21.11° C | 39% | 1011.6 hPa | 0 mm | 0 m/s | 0 W/m² | - |
| 1778050991 | 21.11° C | 38% | 1011.6 hPa | 0 mm | 0 m/s | 0 W/m² | - |
| 1778050688 | 21.11° C | 38% | 1011.5 hPa | 0 mm | 0 m/s | 0 W/m² | - |
| 1778050385 | 21.67° C | 37% | 1011.7 hPa | 0 mm | 0 m/s | 0 W/m² | - |
| 1778050082 | 21.67° C | 36% | 1011.4 hPa | 0 mm | 0 m/s | 0 W/m² | - |
| 1778049777 | 20.56° C | 38% | 1011.5 hPa | 0 mm | 0 m/s | 0 W/m² | - |
| 1778049475 | 21.11° C | 39% | 1011.4 hPa | 0 mm | 0 m/s | 0 W/m² | - |
| 1778049172 | 21.11° C | 39% | 1011.5 hPa | 0 mm | 0 m/s | 0 W/m² | - |
| 1778048871 | 21.67° C | 40% | 1011.4 hPa | 0 mm | 0 m/s | 0 W/m² | - |
| 1778048568 | 21.11° C | 39% | 1011.6 hPa | 0 mm | 0 m/s | 0 W/m² | - |
* Rain latest hour (hover to see other rain measurements)
** Current wind speed in m/s (hover to see current wind gust speed)